Flag for Latvia Weather past 2 weeks in Liepāja, Latvia

Now
59 °F

Passing clouds.


Feels Like: 59 °F
Forecast: 51 / 56 °F
Wind: No wind

Location: Liepaja International Airport

Current Time: Sep 22, 2014 at 7:43:24 PM

Latest Report: Sep 22, 2014 at 7:20 PM


Visibility: N/A

Pressure: 29.56 "Hg

Humidity: 82%

Dew point: 54 °F

Location of LiepājaLocation

Historic Weather in Liepāja — Graph

°F

Liepāja temperature yesterday

Maximum temperature yesterday: 68 °F (at 2:50 PM)
Minimum temperature yesterday: 46 °F (at 5:20 AM)
Average temperature yesterday: 56 °F

Past Weeks' High & Low Weather Summary

 TemperatureHumidityPressure
High75 °F (Sep 8, 2:50 PM)100% (Sep 7, 9:20 PM)30.42 "Hg (Sep 7, 9:20 PM)
Low43 °F (Sep 15, 10:50 PM)41% (Sep 8, 2:50 PM)29.50 "Hg (Sep 22, 5:20 AM)
Average58 °F85%30.10 "Hg
* Reported Sep 7 6:20 PM — Sep 22 6:20 PM, Liepāja, Weather by CustomWeather, © 2014

Note: Actual official high and low records may vary slightly from our data, if they occured in-between our weather recording intervals... More about our weather records

Advertising

Liepāja weather history for previous 24 hours

 ConditionsComfort  
Time TempWeatherWind HumidityBarometerVisibility
6:20 PM
Sep 22
61 °FScattered clouds.3 mph77%29.56 "HgN/A
5:50 PM63 °FScattered clouds.6 mph68%29.56 "HgN/A
5:20 PM63 °FScattered clouds.7 mph73%29.56 "HgN/A
4:50 PM63 °FPassing clouds.5 mph73%29.53 "HgN/A
4:20 PM63 °FPassing clouds.3 mph73%29.53 "HgN/A
3:50 PM61 °FPassing clouds.5 mph77%29.53 "HgN/A
3:20 PM61 °FPassing clouds.5 mph77%29.53 "HgN/A
2:50 PM61 °FPassing clouds.6 mph77%29.53 "HgN/A
2:20 PM63 °FPassing clouds.6 mph73%29.53 "HgN/A
1:50 PM63 °FPassing clouds.6 mph73%29.53 "HgN/A
1:20 PM63 °FPassing clouds.6 mph73%29.53 "HgN/A
12:50 PM63 °FPassing clouds.3 mph77%29.53 "HgN/A
12:20 PM63 °FPassing clouds.5 mph77%29.53 "HgN/A
11:50 AM61 °FPassing clouds.5 mph83%29.53 "HgN/A
11:20 AM59 °FPassing clouds.3 mph94%29.53 "HgN/A
10:50 AM59 °FSunny.2 mph94%29.53 "Hg10 mi
10:20 AM57 °FScattered clouds.5 mph100%29.50 "Hg4 mi
9:50 AM57 °FLight rain. Partly sunny.2 mph100%29.50 "Hg4 mi
9:20 AM55 °FScattered clouds.3 mph100%29.50 "Hg3 mi
8:50 AM55 °FPassing clouds.2 mph100%29.50 "Hg4 mi
8:20 AM54 °FFog.1 mph100%29.50 "Hg2 mi
7:50 AM54 °FFog.2 mph100%29.50 "Hg3 mi
7:20 AM55 °FPassing clouds.2 mph100%29.50 "Hg2 mi
6:50 AM55 °FPassing clouds.1 mph94%29.50 "Hg5 mi
6:20 AM54 °FFog.1 mph100%29.50 "Hg3 mi
5:50 AM54 °FFog.No wind100%29.50 "Hg1 mi
5:20 AM54 °FFog.1 mph100%29.50 "Hg1 mi
4:50 AM57 °FPassing clouds.No wind94%29.53 "HgN/A
4:20 AM57 °FPassing clouds.2 mph94%29.53 "HgN/A
3:50 AM57 °FPartly cloudy.5 mph100%29.53 "HgN/A
3:20 AM57 °FPartly cloudy.3 mph100%29.53 "HgN/A
2:50 AM57 °FMostly cloudy.5 mph100%29.53 "HgN/A
2:20 AM57 °FPassing clouds.6 mph100%29.53 "HgN/A
1:50 AM57 °FPassing clouds.7 mph100%29.56 "HgN/A
1:20 AM59 °FPassing clouds.6 mph94%29.56 "Hg5 mi
12:50 AM59 °FLight rain. Mostly cloudy.5 mph94%29.56 "Hg3 mi
12:20 AM59 °FLight rain. Partly cloudy.6 mph94%29.56 "Hg5 mi
11:20 PM
Sep 21
57 °FPassing clouds.5 mph100%29.59 "Hg5 mi
10:50 PM57 °FPassing clouds.5 mph100%29.59 "Hg6 mi
10:20 PM59 °FPassing clouds.7 mph94%29.62 "HgN/A
9:50 PM59 °FPassing clouds.5 mph88%29.62 "HgN/A
9:20 PM59 °FSunny.5 mph88%29.62 "Hg10 mi
8:50 PM61 °FSunny.6 mph88%29.62 "Hg10 mi
8:20 PM61 °FScattered clouds.3 mph83%29.65 "HgN/A
7:50 PM61 °FPartly sunny.3 mph83%29.65 "HgN/A
7:20 PM61 °FScattered clouds.2 mph83%29.65 "HgN/A
Weather by CustomWeather, © 2014

See weather overviewHow to use our weather pages